| time (UTC) | temp C | wind direction | speed KPH | gust KPH | rain 1hr cm | rain 24hr cm | rain mn cm | humidity % | barometer mb |
| 20260507113525 | 3 | 0.0 | 0.0 | 0.00 | 0.00 | 0.00 | 96 | 1016.7 | |
| 20260507112525 | 2 | 0.0 | 0.0 | 0.00 | 0.00 | 0.00 | 96 | 1016.7 | |
| 20260507111525 | 2 | 0.0 | 0.0 | 0.00 | 0.00 | 0.00 | 96 | 1016.6 | |
| 20260507110525 | 2 | 0.0 | 0.0 | 0.00 | 0.00 | 0.00 | 96 | 1016.7 | |
| 20260507105525 | 2 | 0.0 | 0.0 | 0.00 | 0.00 | 0.00 | 96 | 1016.6 | |
| 20260507104526 | 2 | 0.0 | 0.0 | 0.00 | 0.00 | 0.00 | 96 | 1016.5 | |
| 20260507103525 | 2 | 0.0 | 0.0 | 0.00 | 0.00 | 0.00 | 96 | 1016.4 | |
| 20260507102525 | 2 | 0.0 | 0.0 | 0.00 | 0.00 | 0.00 | 96 | 1016.3 | |
| 20260507101546 | 2 | 0.0 | 0.0 | 0.00 | 0.00 | 0.00 | 96 | 1016.3 | |
| 20260507100525 | 2 | 0.0 | 0.0 | 0.00 | 0.00 | 0.00 | 96 | 1016.2 | |
| 20260507095525 | 2 | 0.0 | 0.0 | 0.00 | 0.00 | 0.00 | 96 | 1016.3 | |
| 20260507094525 | 2 | 0.0 | 0.0 | 0.00 | 0.00 | 0.00 | 96 | 1016.3 | |
| 20260507093526 | 3 | 0.0 | 0.0 | 0.00 | 0.00 | 0.00 | 96 | 1016.2 | |
| 20260507092525 | 3 | 0.0 | 0.0 | 0.00 | 0.00 | 0.00 | 96 | 1016.3 | |
| 20260507091525 | 3 | 0.0 | 0.0 | 0.00 | 0.00 | 0.00 | 96 | 1016.3 | |
| 20260507090525 | 3 | 0.0 | 0.0 | 0.00 | 0.00 | 0.00 | 96 | 1016.3 | |
| 20260507085525 | 3 | 0.0 | 0.0 | 0.00 | 0.00 | 0.00 | 96 | 1016.2 | |
| 20260507084526 | 3 | 0.0 | 0.0 | 0.00 | 0.00 | 0.00 | 97 | 1016.2 | |
| 20260507083526 | 3 | 0.0 | 0.0 | 0.00 | 0.00 | 0.00 | 97 | 1016.1 | |
| 20260507082525 | 3 | 0.0 | 0.0 | 0.00 | 0.00 | 0.00 | 96 | 1015.9 | |
| 20260507081526 | 4 | 284 | 0.0 | 1.6 | 0.00 | 0.03 | 0.00 | 97 | 1015.9 |
| 20260507080526 | 4 | 0.0 | 0.0 | 0.00 | 0.03 | 0.00 | 96 | 1015.9 | |
| 20260507075546 | 4 | 344 | 0.0 | 3.2 | 0.00 | 0.03 | 0.00 | 97 | 1015.8 |
| 20260507074526 | 4 | 17 | 1.6 | 3.2 | 0.00 | 0.03 | 0.00 | 97 | 1015.8 |
| 20260507073525 | 4 | 7 | 0.0 | 4.8 | 0.00 | 0.03 | 0.00 | 97 | 1015.9 |
| 20260507072525 | 4 | 296 | 0.0 | 3.2 | 0.00 | 0.03 | 0.00 | 96 | 1015.9 |
| 20260507071607 | 4 | 0.0 | 0.0 | 0.00 | 0.03 | 0.00 | 96 | 1015.8 | |
| 20260507070525 | 4 | 0.0 | 0.0 | 0.00 | 0.03 | 0.00 | 96 | 1015.8 | |
| 20260507065525 | 4 | 0.0 | 0.0 | 0.00 | 0.08 | 0.00 | 96 | 1015.8 | |
| 20260507064606 | 4 | 0.0 | 0.0 | 0.00 | 0.08 | 0.00 | 96 | 1015.9 | |
| 20260507063545 | 4 | 0.0 | 0.0 | 0.00 | 0.13 | 0.00 | 96 | 1015.9 | |
| 20260507062526 | 4 | 0.0 | 0.0 | 0.00 | 0.15 | 0.00 | 96 | 1016.0 | |
| 20260507061626 | 4 | 0.0 | 0.0 | 0.00 | 0.23 | 0.00 | 95 | 1016.1 | |
| 20260507060525 | 4 | 0.0 | 0.0 | 0.00 | 0.23 | 0.00 | 95 | 1016.1 | |
| 20260507055526 | 4 | 0.0 | 0.0 | 0.00 | 0.23 | 0.00 | 95 | 1016.1 | |
| 20260507054526 | 4 | 0.0 | 0.0 | 0.00 | 0.23 | 0.00 | 95 | 1016.1 | |
| 20260507053525 | 5 | 0.0 | 0.0 | 0.00 | 0.23 | 0.00 | 95 | 1016.2 | |
| 20260507052526 | 5 | 0.0 | 0.0 | 0.00 | 0.25 | 0.00 | 95 | 1016.1 | |
| 20260507051525 | 5 | 0.0 | 0.0 | 0.00 | 0.28 | 0.00 | 94 | 1016.0 | |
| 20260507050526 | 5 | 0.0 | 0.0 | 0.00 | 0.33 | 0.00 | 94 | 1016.0 | |
| 20260507045546 | 5 | 0.0 | 0.0 | 0.00 | 0.36 | 0.00 | 94 | 1016.0 | |
| 20260507044526 | 5 | 0.0 | 0.0 | 0.00 | 0.38 | 0.00 | 94 | 1016.1 | |
| 20260507043525 | 5 | 0.0 | 0.0 | 0.00 | 0.43 | 0.00 | 93 | 1016.1 | |
| 20260507042526 | 5 | 0.0 | 0.0 | 0.00 | 0.51 | 0.00 | 93 | 1016.1 | |
| 20260507041526 | 5 | 0.0 | 0.0 | 0.00 | 0.61 | 0.00 | 93 | 1016.1 | |
| 20260507040526 | 5 | 0.0 | 0.0 | 0.00 | 0.76 | 0.00 | 92 | 1016.1 | |
| 20260507035526 | 6 | 0.0 | 0.0 | 0.00 | 0.91 | 0.91 | 92 | 1016.0 | |
| 20260507034526 | 6 | 0.0 | 0.0 | 0.00 | 0.97 | 0.91 | 92 | 1016.0 | |
| 20260507033526 | 6 | 0.0 | 0.0 | 0.00 | 1.02 | 0.91 | 91 | 1016.0 | |
| 20260507032526 | 6 | 0.0 | 0.0 | 0.00 | 1.09 | 0.91 | 90 | 1015.9 | |
| 20260507031526 | 6 | 0.0 | 0.0 | 0.00 | 1.14 | 0.91 | 89 | 1015.9 | |
| 20260507030546 | 6 | 0.0 | 0.0 | 0.00 | 1.30 | 0.91 | 89 | 1015.9 | |
| 20260507025526 | 6 | 0.0 | 0.0 | 0.00 | 1.40 | 0.91 | 86 | 1015.9 | |
| 20260507024525 | 6 | 0.0 | 0.0 | 0.00 | 1.45 | 0.91 | 85 | 1015.9 | |
| 20260507023526 | 7 | 0.0 | 0.0 | 0.00 | 1.45 | 0.91 | 85 | 1015.9 | |
| 20260507022526 | 7 | 0.0 | 0.0 | 0.00 | 1.47 | 0.91 | 85 | 1015.8 | |
| 20260507021526 | 7 | 0.0 | 0.0 | 0.00 | 1.50 | 0.91 | 85 | 1015.8 | |
| 20260507020526 | 7 | 0.0 | 0.0 | 0.00 | 1.55 | 0.91 | 83 | 1015.7 | |
| 20260507015526 | 8 | 0.0 | 0.0 | 0.00 | 1.57 | 0.91 | 82 | 1015.5 | |
| 20260507014526 | 8 | 0.0 | 0.0 | 0.00 | 1.60 | 0.91 | 80 | 1015.4 | |
| 20260507013606 | 8 | 0.0 | 0.0 | 0.00 | 1.65 | 0.91 | 78 | 1015.4 | |
| 20260507012526 | 9 | 0.0 | 0.0 | 0.00 | 1.75 | 0.91 | 76 | 1015.3 | |
| 20260507011526 | 9 | 0.0 | 0.0 | 0.00 | 1.80 | 0.91 | 74 | 1015.2 | |
| 20260507010526 | 10 | 0.0 | 0.0 | 0.00 | 1.96 | 0.91 | 72 | 1015.1 | |
| 20260507005526 | 10 | 0.0 | 0.0 | 0.00 | 2.08 | 0.91 | 69 | 1015.1 | |
| 20260507004526 | 11 | 0.0 | 0.0 | 0.00 | 2.18 | 0.91 | 68 | 1015.1 | |
| 20260507003526 | 11 | 0.0 | 0.0 | 0.00 | 2.21 | 0.91 | 66 | 1015.1 | |
| 20260507002526 | 11 | 353 | 0.0 | 3.2 | 0.00 | 2.26 | 0.91 | 65 | 1015.0 |
| 20260507001526 | 12 | 0.0 | 0.0 | 0.00 | 2.36 | 0.91 | 63 | 1014.9 | |
| 20260507000546 | 12 | 18 | 0.0 | 3.2 | 0.00 | 2.46 | 0.91 | 60 | 1014.7 |
| 20260506235526 | 13 | 350 | 3.2 | 8.0 | 0.00 | 2.54 | 0.91 | 58 | 1014.5 |
| 20260506234526 | 13 | 323 | 3.2 | 9.7 | 0.00 | 2.77 | 0.91 | 56 | 1014.5 |
| 20260506233526 | 13 | 9 | 4.8 | 6.4 | 0.00 | 2.87 | 0.91 | 56 | 1014.5 |
| 20260506232526 | 13 | 347 | 4.8 | 8.0 | 0.00 | 2.90 | 0.91 | 55 | 1014.6 |
| 20260506231546 | 13 | 40 | 1.6 | 4.8 | 0.00 | 2.95 | 0.91 | 55 | 1014.6 |
| 20260506230526 | 13 | 9 | 4.8 | 11.3 | 0.00 | 3.07 | 0.91 | 54 | 1014.4 |
| 20260506225526 | 14 | 352 | 6.4 | 12.9 | 0.00 | 3.20 | 0.91 | 52 | 1014.3 |
| 20260506224526 | 14 | 356 | 4.8 | 11.3 | 0.00 | 3.23 | 0.91 | 55 | 1014.3 |
| 20260506223526 | 15 | 1 | 3.2 | 6.4 | 0.00 | 3.23 | 0.91 | 54 | 1014.6 |
| 20260506222526 | 15 | 2 | 6.4 | 12.9 | 0.00 | 3.25 | 0.91 | 54 | 1014.5 |
| 20260506221526 | 15 | 311 | 3.2 | 8.0 | 0.00 | 3.28 | 0.91 | 52 | 1014.5 |
| 20260506220526 | 15 | 244 | 6.4 | 11.3 | 0.00 | 3.33 | 0.91 | 50 | 1014.7 |
| 20260506215527 | 16 | 292 | 3.2 | 9.7 | 0.00 | 3.38 | 0.91 | 50 | 1014.7 |
| 20260506214526 | 15 | 294 | 4.8 | 11.3 | 0.00 | 3.45 | 0.91 | 52 | 1014.7 |
| 20260506213526 | 15 | 321 | 4.8 | 9.7 | 0.00 | 3.53 | 0.91 | 50 | 1014.8 |
| 20260506212526 | 15 | 330 | 4.8 | 9.7 | 0.00 | 3.63 | 0.91 | 51 | 1014.7 |
| 20260506211526 | 15 | 336 | 4.8 | 8.0 | 0.00 | 3.78 | 0.91 | 51 | 1014.6 |
| 20260506210527 | 15 | 358 | 6.4 | 11.3 | 0.00 | 3.86 | 0.91 | 50 | 1014.6 |
| 20260506205526 | 16 | 360 | 6.4 | 12.9 | 0.00 | 3.94 | 0.91 | 49 | 1014.5 |
| 20260506204527 | 16 | 332 | 4.8 | 9.7 | 0.00 | 3.94 | 0.91 | 51 | 1014.4 |
| 20260506203526 | 15 | 11 | 4.8 | 11.3 | 0.00 | 3.94 | 0.91 | 54 | 1014.4 |
| 20260506202526 | 15 | 348 | 4.8 | 9.7 | 0.00 | 3.94 | 0.91 | 55 | 1014.4 |
| 20260506201547 | 15 | 296 | 3.2 | 8.0 | 0.00 | 3.94 | 0.91 | 52 | 1014.4 |
| 20260506200547 | 15 | 8 | 3.2 | 8.0 | 0.00 | 3.94 | 0.91 | 52 | 1014.5 |
| 20260506195526 | 15 | 4 | 4.8 | 9.7 | 0.00 | 3.94 | 0.91 | 52 | 1014.6 |
| 20260506194527 | 15 | 246 | 6.4 | 9.7 | 0.00 | 3.94 | 0.91 | 53 | 1014.6 |
| 20260506193526 | 15 | 34 | 3.2 | 6.4 | 0.00 | 3.94 | 0.91 | 55 | 1014.5 |
| 20260506192527 | 15 | 347 | 4.8 | 9.7 | 0.00 | 3.96 | 0.91 | 55 | 1014.6 |
| 20260506191527 | 15 | 277 | 6.4 | 12.9 | 0.00 | 3.99 | 0.91 | 54 | 1014.5 |
| 20260506190547 | 16 | 351 | 4.8 | 6.4 | 0.00 | 4.01 | 0.91 | 54 | 1014.4 |
| 20260506185547 | 15 | 317 | 3.2 | 9.7 | 0.00 | 4.09 | 0.91 | 57 | 1014.3 |
| 20260506184527 | 15 | 7 | 6.4 | 9.7 | 0.00 | 4.11 | 0.91 | 55 | 1014.3 |
| 20260506183527 | 15 | 255 | 6.4 | 14.5 | 0.00 | 4.14 | 0.91 | 55 | 1014.3 |
| 20260506182527 | 14 | 15 | 8.0 | 11.3 | 0.00 | 4.19 | 0.91 | 56 | 1014.3 |
| 20260506181527 | 14 | 290 | 3.2 | 6.4 | 0.00 | 4.24 | 0.91 | 57 | 1014.5 |
| 20260506180527 | 14 | 25 | 3.2 | 6.4 | 0.00 | 4.24 | 0.91 | 56 | 1014.4 |
| 20260506175527 | 14 | 7 | 3.2 | 6.4 | 0.00 | 4.24 | 0.91 | 53 | 1014.5 |
| 20260506174527 | 14 | 351 | 4.8 | 9.7 | 0.00 | 4.39 | 0.91 | 54 | 1014.6 |
| 20260506173608 | 13 | 15 | 8.0 | 14.5 | 0.00 | 4.42 | 0.91 | 56 | 1014.6 |
| 20260506172547 | 14 | 360 | 4.8 | 11.3 | 0.00 | 4.42 | 0.91 | 53 | 1014.8 |
| 20260506171547 | 15 | 357 | 4.8 | 9.7 | 0.00 | 4.42 | 0.91 | 52 | 1014.8 |
| 20260506170547 | 15 | 239 | 4.8 | 8.0 | 0.00 | 4.42 | 0.91 | 51 | 1014.9 |
| 20260506165547 | 15 | 355 | 6.4 | 12.9 | 0.00 | 4.42 | 0.91 | 54 | 1014.8 |
| 20260506164527 | 14 | 350 | 4.8 | 9.7 | 0.00 | 4.42 | 0.91 | 58 | 1014.7 |
| 20260506163527 | 13 | 6 | 11.3 | 14.5 | 0.00 | 4.42 | 0.91 | 55 | 1014.6 |
| 20260506162527 | 13 | 1 | 6.4 | 14.5 | 0.00 | 4.42 | 0.91 | 55 | 1014.8 |
| 20260506161527 | 14 | 356 | 8.0 | 19.3 | 0.00 | 4.42 | 0.91 | 57 | 1014.8 |
| 20260506160528 | 13 | 354 | 4.8 | 9.7 | 0.00 | 4.42 | 0.91 | 60 | 1014.8 |
| 20260506155527 | 13 | 14 | 11.3 | 17.7 | 0.00 | 4.42 | 0.91 | 59 | 1014.6 |
| 20260506154527 | 13 | 20 | 4.8 | 9.7 | 0.00 | 4.42 | 0.91 | 63 | 1014.5 |
| 20260506153527 | 13 | 11 | 9.7 | 16.1 | 0.00 | 4.42 | 0.91 | 61 | 1014.4 |
| 20260506152607 | 12 | 9 | 9.7 | 16.1 | 0.00 | 4.42 | 0.91 | 63 | 1014.7 |
| 20260506151527 | 12 | 10 | 6.4 | 11.3 | 0.00 | 4.42 | 0.91 | 64 | 1014.9 |
| 20260506150548 | 12 | 2 | 4.8 | 9.7 | 0.00 | 4.42 | 0.91 | 65 | 1014.6 |
| 20260506145527 | 11 | 15 | 4.8 | 9.7 | 0.00 | 4.42 | 0.91 | 66 | 1014.4 |
| 20260506144527 | 11 | 4 | 6.4 | 12.9 | 0.00 | 4.42 | 0.91 | 69 | 1014.5 |
| 20260506143527 | 11 | 7 | 6.4 | 11.3 | 0.00 | 4.42 | 0.91 | 72 | 1014.3 |
| 20260506142527 | 10 | 7 | 8.0 | 12.9 | 0.00 | 4.42 | 0.91 | 74 | 1013.8 |
| 20260506141527 | 10 | 17 | 9.7 | 12.9 | 0.00 | 4.42 | 0.91 | 75 | 1013.5 |
| 20260506140527 | 9 | 353 | 6.4 | 11.3 | 0.00 | 4.42 | 0.91 | 77 | 1013.3 |
| 20260506135527 | 9 | 18 | 9.7 | 14.5 | 0.00 | 4.42 | 0.91 | 77 | 1013.2 |
| 20260506134528 | 9 | 8 | 6.4 | 9.7 | 0.00 | 4.42 | 0.91 | 80 | 1013.3 |
| 20260506133527 | 9 | 11 | 6.4 | 11.3 | 0.00 | 4.42 | 0.91 | 81 | 1013.5 |
| 20260506132527 | 8 | 2 | 3.2 | 6.4 | 0.00 | 4.42 | 0.91 | 84 | 1013.6 |
| 20260506131528 | 8 | 22 | 1.6 | 4.8 | 0.00 | 4.42 | 0.91 | 86 | 1013.5 |
| 20260506130527 | 8 | 355 | 1.6 | 4.8 | 0.00 | 4.42 | 0.91 | 88 | 1013.5 |
| 20260506125528 | 8 | 349 | 3.2 | 6.4 | 0.00 | 4.45 | 0.91 | 88 | 1013.2 |
| 20260506124547 | 8 | 341 | 0.0 | 3.2 | 0.00 | 4.45 | 0.91 | 91 | 1013.5 |
| 20260506123528 | 7 | 285 | 0.0 | 3.2 | 0.00 | 4.45 | 0.91 | 91 | 1013.3 |
| 20260506122528 | 7 | 319 | 3.2 | 4.8 | 0.00 | 4.45 | 0.91 | 92 | 1013.2 |
| 20260506121527 | 7 | 248 | 1.6 | 6.4 | 0.00 | 4.45 | 0.91 | 93 | 1013.3 |
| 20260506120527 | 7 | 0.0 | 0.0 | 0.00 | 4.45 | 0.91 | 94 | 1013.0 | |
| 20260506115528 | 7 | 314 | 1.6 | 6.4 | 0.00 | 4.45 | 0.91 | 95 | 1012.7 |
| 20260506114527 | 7 | 0.0 | 0.0 | 0.00 | 4.45 | 0.91 | 95 | 1012.4 | |
| 20260506113528 | 6 | 0.0 | 0.0 | 0.00 | 4.45 | 0.91 | 95 | 1012.1 |